Terminal Aerodrome Forecast
Issued by NWS Riverton, WY

Home | Current Version | Previous Version | Text Only | Print | Product List | Glossary On
Versions: 1 2 3 4 5 6 7 8 9 10 11 12 13 14 15 16
000
FTUS45 KRIW 061100
TAFRIW
TAF
KRIW 061123Z 0612/0712 25007KT P6SM SCT120 WS020/30035KT
     FM061900 VRB05KT P6SM FEW120
     FM070300 29007KT P6SM SCT120=

USA.gov is the U.S. government's official web portal to all federal, state and local government web resources and services.